Provincetown, Massachusetts, United States (02657)
Lat: 42.06N, Lon: 70.18W
Wx Zone: MAZ022
Local Info
Past Weather Observations for Today

NOTE: This archive is for the closest National Weather Service station to Provincetown. Information may differ from the station used for current weather conditions.

Click here for Long-term Archive

Time Weather Temperature Dewpoint Humidity Pressure Winds Precip Visibility
16:56
Obscured
Fog
21°F / -6°C 19°F / -7°C 93% 29.3 in
(992 mb)
NNW 31.1 mph
(NNW 50 kph)
0.02 in
(0.51 mm)
1/4SM
16:26
Obscured
Fog
21°F / -6°C 19°F / -7°C 93% 29.3 in
(992 mb)
NNW 29.9 mph
(NNW 48 kph)
0.01 in
(0.25 mm)
1/4SM
15:56
Obscured
Heavy Snow
23°F / -5°C 21°F / -6°C 93% 29.27 in
(991 mb)
NNW 29.9 mph
(NNW 48 kph)
0.02 in
(0.51 mm)
M1/4SM
14:56
Obscured
Heavy Snow
23°F / -5°C 21°F / -6°C 93% 29.24 in
(990 mb)
NNW 26.5 mph
(NNW 43 kph)
0.04 in
(1.02 mm)
M1/4SM
13:56
Obscured
Heavy Snow
25°F / -4°C 21°F / -6°C 86% 29.24 in
(990 mb)
N 31.1 mph
(N 50 kph)
0.03 in
(0.76 mm)
M1/4SM
13:23
Obscured
Heavy Snow
25°F / -4°C 23°F / -5°C 93% 29.24 in
(990 mb)
N 32.2 mph
(N 52 kph)
0.02 in
(0.51 mm)
1/4SM
12:56
Obscured
Heavy Snow
25°F / -4°C 23°F / -5°C 93% 29.24 in
(990 mb)
N 32.2 mph
(N 52 kph)
0.05 in
(1.27 mm)
1/4SM
11:56
Obscured
Heavy Snow
25°F / -4°C 23°F / -5°C 93% 29.21 in
(989 mb)
N 33.4 mph
(N 54 kph)
0.03 in
(0.76 mm)
1/4SM
10:56
Obscured
Heavy Snow
25°F / -4°C N/A N/A 29.21 in
(989 mb)
N 38 mph
(N 61 kph)
0.07 in
(1.78 mm)
1/4SM
10:36
Obscured
Heavy Snow
25°F / -4°C N/A N/A 29.21 in
(989 mb)
N 39.1 mph
(N 63 kph)
0.06 in
(1.52 mm)
1/4SM
10:29
Obscured
Heavy Snow
25°F / -4°C N/A N/A 29.24 in
(990 mb)
N 35.7 mph
(N 57 kph)
0.05 in
(1.27 mm)
1/2SM
09:56
Obscured
Heavy Snow
25°F / -4°C N/A N/A 29.27 in
(991 mb)
N 42.6 mph
(N 69 kph)
0.19 in
(4.83 mm)
1/4SM
09:45
Obscured
Heavy Snow
25°F / -4°C N/A N/A 29.24 in
(990 mb)
N 31.1 mph
(N 50 kph)
0.16 in
(4.06 mm)
1/2SM
09:03
Obscured
Heavy Snow
25°F / -4°C 25°F / -4°C 100% 29.27 in
(991 mb)
N 34.5 mph
(N 56 kph)
0.02 in
(0.51 mm)
1/4SM
08:56
Obscured
Heavy Snow
25°F / -4°C 25°F / -4°C 100% 29.27 in
(991 mb)
N 36.8 mph
(N 59 kph)
0.07 in
(1.78 mm)
1/4SM
07:56
Obscured
Heavy Snow
27°F / -3°C 25°F / -4°C 93% 29.27 in
(991 mb)
NE 33.4 mph
(NE 54 kph)
0.11 in
(2.79 mm)
1/4SM
06:56
Obscured
Heavy Snow
28°F / -2°C 27°F / -3°C 93% 29.27 in
(991 mb)
NNE 36.8 mph
(NNE 59 kph)
0.27 in
(6.86 mm)
1/4SM
06:14
Obscured
Snow
28°F / -2°C 28°F / -2°C 100% 29.3 in
(992 mb)
N 33.4 mph
(N 54 kph)
0.04 in
(1.02 mm)
1/4SM
05:56
Obscured
Fog
28°F / -2°C 28°F / -2°C 100% 29.3 in
(992 mb)
N 38 mph
(N 61 kph)
0.03 in
(0.76 mm)
1/4SM
05:39
Obscured
Fog
30°F / -1°C 28°F / -2°C 93% 29.33 in
(993 mb)
N 31.1 mph
(N 50 kph)
0.03 in
(0.76 mm)
1/4SM
05:29
Obscured
Fog
30°F / -1°C 28°F / -2°C 93% 29.3 in
(992 mb)
NNE 40.3 mph
(NNE 65 kph)
0.03 in
(0.76 mm)
1/2SM
04:56
Obscured
Fog
30°F / -1°C 28°F / -2°C 93% 29.33 in
(993 mb)
NNE 33.4 mph
(NNE 54 kph)
0.11 in
(2.79 mm)
1/4SM
04:48
Obscured
Fog
30°F / -1°C 28°F / -2°C 93% 29.33 in
(993 mb)
NNE 27.6 mph
(NNE 44 kph)
0.10 in
(2.54 mm)
1/2SM
04:26
Obscured
Fog
30°F / -1°C 28°F / -2°C 93% 29.33 in
(993 mb)
NNE 35.7 mph
(NNE 57 kph)
0.04 in
(1.02 mm)
1/4SM
04:07
Obscured
Heavy Snow
30°F / -1°C 28°F / -2°C 93% 29.36 in
(994 mb)
NNE 28.8 mph
(NNE 46 kph)
0.00 in
(0.00 mm)
1/4SM
03:56
Obscured
Fog
30°F / -1°C 30°F / -1°C 100% 29.36 in
(994 mb)
NNE 32.2 mph
(NNE 52 kph)
- 1/2SM
03:34
Obscured
Fog
30°F / -1°C 28°F / -2°C 93% 29.39 in
(995 mb)
NE 34.5 mph
(NE 56 kph)
- 1/2SM
02:56
Obscured
Fog
30°F / -1°C 28°F / -2°C 93% 29.39 in
(995 mb)
NNE 33.4 mph
(NNE 54 kph)
- 1/4SM
02:03
Obscured
Fog
28°F / -2°C 28°F / -2°C 100% 29.44 in
(997 mb)
NNE 33.4 mph
(NNE 54 kph)
- 1/4SM
01:56
Obscured
Fog
28°F / -2°C 28°F / -2°C 100% 29.44 in
(997 mb)
NNE 33.4 mph
(NNE 54 kph)
- 1/2SM
01:40
Obscured
Fog
28°F / -2°C 28°F / -2°C 100% 29.47 in
(998 mb)
NE 31.1 mph
(NE 50 kph)
- 1/2SM
00:56
Obscured
Fog
30°F / -1°C 28°F / -2°C 93% 29.5 in
(999 mb)
NE 29.9 mph
(NE 48 kph)
- 1/4SM
00:29
Obscured
Fog
30°F / -1°C 28°F / -2°C 93% 29.53 in
(1000 mb)
NNE 29.9 mph
(NNE 48 kph)
- 1/4SM
00:08
Obscured
Fog
30°F / -1°C 28°F / -2°C 93% 29.56 in
(1001 mb)
NE 32.2 mph
(NE 52 kph)
- 1/4SM
Time Weather Temperature Dewpoint Humidity Pressure Winds Precip Visibility


Weather for websites

WeatherForYou.com, LLC is not responsible for any damages or problems caused by this service. Current weather conditions are obtained from the closest station including government and personal stations which may have varying degrees of accuracy. Weather forecasts are derived from the NOAA NDFD. Like all things, this site belongs to Jesus Christ... He just trusts me to maintain it. If you have any questions or comments email webmaster@weatherforyou.com

Copyright © 2015, WeatherForYou.com LLC. All rights reserved.